Flag for Germany Weather past 2 weeks in Euskirchen, North Rhine-Westphalia, Germany

Now
63 °F

Fog.


Feels Like: 63 °F
Forecast: 57 / 71 °F
Wind: No wind

Location: Noervenich

Current Time: Jul 24, 2014 at 8:35:14 AM

Latest Report: Jul 24, 2014 at 7:20 AM


Visibility: N/A

Pressure: 29.98 "Hg

Humidity: 88%

Dew point: 59 °F

Location of EuskirchenLocation

Historic Weather in Euskirchen — Graph

°F

Euskirchen temperature yesterday

Maximum temperature yesterday: 84 °F (at 3:52 PM)
Minimum temperature yesterday: 63 °F (at 5:20 AM)
Average temperature yesterday: 73 °F

Past Weeks' High & Low Weather Summary

 TemperatureHumidityPressure
High93 °F (Jul 18, 5:20 PM)100% (Jul 9, 4:20 PM)30.18 "Hg (Jul 9, 4:20 PM)
Low55 °F (Jul 14, 5:20 AM)28% (Jul 18, 5:20 PM)29.68 "Hg (Jul 9, 3:01 PM)
Average69 °F78%29.95 "Hg
* Reported Jul 9 3:01 PM — Jul 24 7:20 AM, Euskirchen, Weather by CustomWeather, © 2014

Note: Actual official high and low records may vary slightly from our data, if they occured in-between our weather recording intervals... More about our weather records

Advertising

Euskirchen weather history for previous 24 hours

 ConditionsComfort  
Time TempWeatherWind HumidityBarometerVisibility
7:20 AM
Jul 24
63 °FFog.No wind88%29.98 "HgN/A
6:20 AM61 °FFog.1 mph88%29.98 "HgN/A
5:20 AM63 °FPassing clouds.2 mph94%29.98 "HgN/A
4:20 AM63 °FPassing clouds.1 mph94%29.98 "HgN/A
3:20 AM64 °FPassing clouds.3 mph88%29.98 "HgN/A
2:20 AM64 °FPassing clouds.1 mph94%29.98 "HgN/A
1:20 AM64 °FPassing clouds.3 mph94%30.01 "HgN/A
12:20 AM66 °FPassing clouds.No wind88%30.01 "HgN/A
11:20 PM
Jul 23
68 °FPassing clouds.No wind83%30.01 "HgN/A
10:20 PM70 °FScattered clouds.No wind78%30.01 "HgN/A
9:20 PM72 °FBroken clouds.No wind73%30.01 "HgN/A
8:20 PM79 °FThundershowers. Scattered clouds.1 mph65%29.98 "HgN/A
7:20 PM81 °FPassing clouds.3 mph54%29.98 "HgN/A
6:20 PM77 °FScattered clouds.2 mph57%30.01 "HgN/A
5:20 PM72 °FScattered clouds.3 mph73%30.01 "HgN/A
4:20 PM75 °FThunderstorms. Broken clouds.10 mph54%30.01 "HgN/A
3:52 PM84 °FThundershowers. Scattered clouds.2 mph43%30.01 "HgN/A
2:20 PM82 °FPartly sunny.5 mph45%30.04 "HgN/A
1:20 PM81 °FPartly sunny.6 mph51%30.04 "HgN/A
12:20 PM81 °FPartly sunny.5 mph51%30.07 "HgN/A
11:20 AM79 °FScattered clouds.2 mph58%30.07 "HgN/A
10:20 AM75 °FScattered clouds.3 mph65%30.07 "HgN/A
9:20 AM72 °FScattered clouds.1 mph83%30.07 "HgN/A
Weather by CustomWeather, © 2014

See weather overviewHow to use our weather pages